Regional Weather Roundup
Issued by NWS Little Rock, AR

Home | Current Version | Previous Version | Text Only | Print | Product List | Glossary Off
Versions: 1 2 3 4 5 6 7 8 9 10 11 12 13 14 15 16 17 18 19 20 21 22 23 24 25 26 27 28 29 30 31 32 33 34 35 36 37 38 39 40 41 42 43 44 45 46 47 48 49 50

000
ASUS44 KLZK 301005
RWRLZK

WEATHER ROUNDUP FOR ARKANSAS
NATIONAL WEATHER SERVICE LITTLE ROCK AR
500 AM CDT MON MAY 30 2016

NOTE: "FAIR" INDICATES FEW OR NO CLOUDS BELOW 12,000 FEET WITH NO
SIGNIFICANT WEATHER AND/OR OBSTRUCTIONS TO VISIBILITY.

ARZ001-003-010-029-301100-
NORTHWEST ARKANSAS

CITY           SKY/WX    TMP DP  RH WIND       PRES   REMARKS
FAYETTEVILLE   CLOUDY    59  59 100 CALM      30.06R
FORT SMITH     CLOUDY    67  64  90 CALM      30.02S
HARRISON       CLEAR     61  60  97 CALM      30.08R FOG
BENTONVILLE    CLOUDY    64  59  82 CALM      30.06R
ROGERS           N/A     64  63  96 CALM      30.07R
SILOAM SPGS    MOCLDY    63  55  77 E3        30.06R
HIGHFILL       PTCLDY    62  61  96 CALM      30.05R
$$

ARZ004-005-016-301100-
NORTH CENTRAL ARKANSAS

CITY           SKY/WX    TMP DP  RH WIND       PRES   REMARKS
BATESVILLE     CLEAR     64  63  94 NW3       30.05S
FLIPPIN        MOCLDY   N/A N/A N/A CALM      30.03S
MTN HOME       CLEAR     65  63  93 CALM      30.05R
$$

ARZ040-041-301100-
WEST CENTRAL ARKANSAS

CITY           SKY/WX    TMP DP  RH WIND       PRES   REMARKS
MENA           CLOUDY    63  63 100 CALM      30.05R
MOUNT IDA      CLOUDY    63  61  93 CALM      30.01S FOG
$$

ARZ009-017-025-026-028-301100-
NORTHEAST ARKANSAS

CITY           SKY/WX    TMP DP  RH WIND       PRES   REMARKS
CORNING          N/A     68  68 100 N3        30.05R
JONESBORO      PTCLDY    68  66  93 CALM      30.04R
NEWPORT        CLOUDY    70  70 100 CALM      30.05S
WALNUT RIDGE   CLEAR     70  66  88 CALM      30.04S
BLYTHEVILLE    CLEAR     70  68  93 CALM      30.04R
$$

ARZ022-023-033-042-044-301100-
CENTRAL ARKANSAS

CITY           SKY/WX    TMP DP  RH WIND       PRES   REMARKS
LITTLE ROCK    MOCLDY    65  62  90 CALM      30.05R
N LITTLE ROCK    N/A     65  60  85 CALM      30.03R
JACKSONVILLE   CLOUDY    64  64  99 CALM      30.03R
SEARCY         PTCLDY    64  64 100 CALM      30.05F FOG
HOT SPRINGS    PTCLDY    64  63  96 E3        30.03R
RUSSELLVILLE   CLEAR     62  61  96 CALM      30.03S
CLINTON        FAIR      63  63 100 CALM      30.06S FOG
$$

ARZ036-301100-
EAST ARKANSAS

CITY           SKY/WX    TMP DP  RH WIND       PRES   REMARKS
WEST MEMPHIS   CLOUDY    69  69 100 CALM      30.03R FOG
$$

ARZ050-053-066-070-073-301100-
SOUTHWEST ARKANSAS

CITY           SKY/WX    TMP DP  RH WIND       PRES   REMARKS
ARKADELPHIA    FAIR      66  66 100 CALM      30.03S FOG
CAMDEN         CLOUDY    66  63  88 CALM      30.04R
TEXARKANA      CLOUDY    66  65  96 E5        30.02R
EL DORADO      MOCLDY    65  63  93 CALM      30.03S
DE QUEEN       CLOUDY    66  65  96 CALM      30.01R
$$

ARZ056-057-069-301100-
SOUTHEAST ARKANSAS

CITY           SKY/WX    TMP DP  RH WIND       PRES   REMARKS
PINE BLUFF     MOCLDY    64  63  96 CALM      30.04R
STUTTGART      CLOUDY    66  61  82 CALM      30.05R
MONTICELLO     CLEAR     64  62  93 CALM      30.05R

$$





USA.gov is the U.S. government's official web portal to all federal, state and local government web resources and services.